When you browse on this site, cookies collect data to enhance your experience and personalize the content and advertising you see.
Visit our Privacy Policy to learn more. By continuing to use the site, you agree to this use of cookies and data.
  • In Sweden
  • List of Countries
  • For 7 days
  • Water Temperature
  • Weather Map
  • Weather Widgets
  • user-avatar
    Login

    Hourly Weather Szabadegyháza

    Today, 27 January, Monday

    Time Temperature Precipitation Wind Pressure Humidity
    00:00 +2°C° 0 mm 1 mps 755 mmHg 76%
    01:00 +2°C° 0 mm 1 mps 755 mmHg 75%
    02:00 +2°C° 0 mm 1 mps 755 mmHg 75%
    03:00 +2°C° 0 mm 1 mps 754 mmHg 74%
    04:00 +2°C° 0 mm 1 mps 754 mmHg 73%
    05:00 +2°C° 0 mm 1 mps 754 mmHg 74%
    06:00 +2°C° 0 mm 1 mps 754 mmHg 75%
    07:00 +1°C° 0 mm 0 mps 754 mmHg 75%
    08:00 +3°C° 0 mm 1 mps 754 mmHg 74%
    09:00 +4°C° 0 mm 1 mps 754 mmHg 73%
    10:00 +3°C° 0 mm 2 mps 754 mmHg 73%
    11:00 +4°C° 0 mm 2 mps 754 mmHg 71%
    12:00 +5°C° 0 mm 2 mps 754 mmHg 69%
    13:00 +6°C° 0 mm 2 mps 754 mmHg 68%
    14:00 +6°C° 0 mm 2 mps 753 mmHg 70%
    15:00 +5°C° 0 mm 2 mps 753 mmHg 72%
    16:00 +6°C° 0 mm 1 mps 753 mmHg 74%
    17:00 +5°C° 0 mm 1 mps 753 mmHg 78%
    18:00 +4°C° 0 mm 1 mps 752 mmHg 81%
    19:00 +3°C° 0 mm 1 mps 752 mmHg 85%
    20:00 +3°C° 0 mm 1 mps 752 mmHg 86%
    21:00 +3°C° 0 mm 1 mps 752 mmHg 87%
    22:00 +3°C° 0 mm 1 mps 752 mmHg 88%
    23:00 +3°C° 0 mm 1 mps 751 mmHg 89%

    Tomorrow, 28 January, Tuesday

    Time Temperature Precipitation Wind Pressure Humidity
    00:00 +2°C° 0 mm 2 mps 750 mmHg 90%
    01:00 +1°C° 0 mm 2 mps 750 mmHg 91%
    02:00 +1°C° 0 mm 2 mps 749 mmHg 92%
    03:00 0°C° 0 mm 3 mps 748 mmHg 93%
    04:00 0°C° 0 mm 3 mps 747 mmHg 94%
    05:00 +1°C° 0 mm 3 mps 747 mmHg 94%
    06:00 0°C° 0 mm 4 mps 747 mmHg 94%
    07:00 0°C° 0 mm 5 mps 746 mmHg 94%
    08:00 +1°C° 0.4 mm 5 mps 746 mmHg 93%
    09:00 +2°C° 0.4 mm 6 mps 745 mmHg 92%
    10:00 +3°C° 0.4 mm 6 mps 744 mmHg 91%
    11:00 +4°C° 0.1 mm 6 mps 744 mmHg 89%
    12:00 +4°C° 0.1 mm 6 mps 743 mmHg 88%
    13:00 +5°C° 0.1 mm 7 mps 743 mmHg 86%
    14:00 +6°C° 0.2 mm 5 mps 742 mmHg 87%
    15:00 +6°C° 0.2 mm 4 mps 742 mmHg 87%
    16:00 +7°C° 0.2 mm 3 mps 741 mmHg 88%
    17:00 +6°C° 1.6 mm 4 mps 741 mmHg 88%
    18:00 +5°C° 1.6 mm 5 mps 741 mmHg 88%
    19:00 +3°C° 1.6 mm 6 mps 741 mmHg 88%
    20:00 +3°C° 0.2 mm 5 mps 742 mmHg 84%
    21:00 +3°C° 0.2 mm 5 mps 742 mmHg 80%
    22:00 +3°C° 0.2 mm 5 mps 743 mmHg 76%
    23:00 +3°C° 0 mm 6 mps 743 mmHg 72%

    Day after tomorrow, 29 January, Wednesday

    Time Temperature Precipitation Wind Pressure Humidity
    00:00 +2°C° 0 mm 6 mps 744 mmHg 67%
    01:00 +2°C° 0 mm 6 mps 744 mmHg 62%
    02:00 +1°C° 0 mm 6 mps 745 mmHg 64%
    03:00 +1°C° 0 mm 5 mps 745 mmHg 65%
    04:00 0°C° 0 mm 5 mps 746 mmHg 66%
    05:00 0°C° 0 mm 5 mps 746 mmHg 73%
    06:00 0°C° 0 mm 5 mps 746 mmHg 81%
    07:00 -1°C° 0 mm 5 mps 746 mmHg 88%
    08:00 0°C° 0 mm 5 mps 746 mmHg 84%
    09:00 +1°C° 0 mm 6 mps 746 mmHg 80%
    10:00 +2°C° 0 mm 6 mps 747 mmHg 77%
    11:00 +2°C° 0 mm 6 mps 747 mmHg 71%
    12:00 +3°C° 0 mm 6 mps 747 mmHg 65%
    13:00 +5°C° 0 mm 5 mps 747 mmHg 59%
    14:00 +5°C° 0 mm 5 mps 747 mmHg 60%
    15:00 +4°C° 0 mm 4 mps 747 mmHg 62%
    16:00 +4°C° 0 mm 4 mps 747 mmHg 63%
    17:00 +3°C° 0 mm 4 mps 748 mmHg 64%
    18:00 +2°C° 0 mm 5 mps 748 mmHg 64%
    19:00 +1°C° 0 mm 5 mps 749 mmHg 64%
    20:00 +1°C° 0 mm 5 mps 749 mmHg 65%
    21:00 +1°C° 0 mm 5 mps 750 mmHg 66%
    22:00 0°C° 0 mm 5 mps 750 mmHg 67%
    23:00 0°C° 0 mm 5 mps 750 mmHg 68%

    30 January, Thursday

    Time Temperature Precipitation Wind Pressure Humidity
    00:00 0°C° 0 mm 5 mps 751 mmHg 70%
    01:00 0°C° 0 mm 5 mps 751 mmHg 72%
    02:00 0°C° 0 mm 5 mps 751 mmHg 72%
    03:00 0°C° 0 mm 5 mps 752 mmHg 73%
    04:00 0°C° 0 mm 5 mps 752 mmHg 74%
    05:00 -2°C° 0 mm 6 mps 753 mmHg 75%
    06:00 -2°C° 0 mm 6 mps 753 mmHg 76%
    07:00 -2°C° 0 mm 6 mps 753 mmHg 77%
    08:00 -1°C° 0 mm 7 mps 754 mmHg 72%
    09:00 0°C° 0 mm 7 mps 755 mmHg 67%
    10:00 0°C° 0 mm 8 mps 755 mmHg 63%
    11:00 +2°C° 0 mm 7 mps 755 mmHg 60%
    12:00 +3°C° 0 mm 7 mps 755 mmHg 57%
    13:00 +4°C° 0 mm 6 mps 755 mmHg 54%
    14:00 +3°C° 0 mm 5 mps 755 mmHg 56%
    15:00 +4°C° 0 mm 4 mps 755 mmHg 58%
    16:00 +4°C° 0 mm 3 mps 755 mmHg 61%
    17:00 +3°C° 0 mm 3 mps 755 mmHg 63%
    18:00 +2°C° 0 mm 3 mps 755 mmHg 66%
    19:00 +2°C° 0 mm 3 mps 755 mmHg 69%
    20:00 +1°C° 0 mm 3 mps 755 mmHg 70%
    21:00 +1°C° 0 mm 3 mps 754 mmHg 72%
    22:00 +1°C° 0 mm 3 mps 754 mmHg 73%
    23:00 +1°C° 0 mm 3 mps 754 mmHg 72%

    31 January, Friday

    Time Temperature Precipitation Wind Pressure Humidity
    00:00 +1°C° 0 mm 3 mps 754 mmHg 71%
    01:00 +1°C° 0 mm 3 mps 753 mmHg 70%
    02:00 +1°C° 0 mm 3 mps 753 mmHg 72%
    03:00 +1°C° 0 mm 2 mps 753 mmHg 74%
    04:00 +1°C° 0 mm 2 mps 753 mmHg 76%
    05:00 +1°C° 0 mm 2 mps 753 mmHg 79%
    06:00 +1°C° 0 mm 2 mps 752 mmHg 81%
    07:00 +1°C° 0 mm 2 mps 752 mmHg 83%
    08:00 +1°C° 0 mm 3 mps 752 mmHg 79%
    09:00 +2°C° 0 mm 3 mps 752 mmHg 76%
    10:00 +4°C° 0 mm 4 mps 753 mmHg 72%
    11:00 +4°C° 0 mm 4 mps 752 mmHg 70%
    12:00 +5°C° 0 mm 5 mps 752 mmHg 68%
    13:00 +6°C° 0 mm 5 mps 751 mmHg 66%
    14:00 +6°C° 0 mm 4 mps 751 mmHg 66%
    15:00 +6°C° 0 mm 4 mps 751 mmHg 66%
    16:00 +7°C° 0 mm 3 mps 751 mmHg 66%
    17:00 +6°C° 0 mm 4 mps 751 mmHg 66%
    18:00 +6°C° 0 mm 4 mps 751 mmHg 66%
    19:00 +6°C° 0 mm 5 mps 751 mmHg 67%
    20:00 +6°C° 0 mm 5 mps 751 mmHg 67%
    21:00 +6°C° 0 mm 5 mps 751 mmHg 67%
    22:00 +6°C° 0 mm 5 mps 751 mmHg 68%
    23:00 +6°C° 0 mm 5 mps 751 mmHg 69%

    1 February, Saturday

    Time Temperature Precipitation Wind Pressure Humidity
    00:00 +6°C° 0 mm 4 mps 751 mmHg 71%
    01:00 +6°C° 0 mm 4 mps 752 mmHg 72%
    02:00 +6°C° 0 mm 4 mps 752 mmHg 75%
    03:00 +5°C° 0 mm 4 mps 752 mmHg 78%
    04:00 +5°C° 0 mm 4 mps 752 mmHg 81%
    05:00 +5°C° 0 mm 4 mps 752 mmHg 81%
    06:00 +5°C° 0 mm 3 mps 752 mmHg 82%
    07:00 +4°C° 0 mm 3 mps 753 mmHg 82%
    08:00 +5°C° 0 mm 3 mps 753 mmHg 79%
    09:00 +6°C° 0 mm 4 mps 753 mmHg 76%
    10:00 +7°C° 0 mm 4 mps 754 mmHg 74%
    11:00 +7°C° 0 mm 4 mps 753 mmHg 71%
    12:00 +8°C° 0 mm 4 mps 753 mmHg 68%
    13:00 +8°C° 0 mm 4 mps 753 mmHg 65%
    14:00 +9°C° 0 mm 3 mps 753 mmHg 66%
    15:00 +9°C° 0 mm 3 mps 753 mmHg 67%
    16:00 +8°C° 0 mm 2 mps 753 mmHg 68%
    17:00 +8°C° 0 mm 2 mps 753 mmHg 71%
    18:00 +7°C° 0 mm 2 mps 753 mmHg 73%
    19:00 +7°C° 0 mm 2 mps 753 mmHg 76%
    20:00 +7°C° 0 mm 2 mps 753 mmHg 79%
    21:00 +5°C° 0 mm 3 mps 753 mmHg 82%
    22:00 +5°C° 0 mm 3 mps 753 mmHg 84%
    23:00 +5°C° 0 mm 3 mps 753 mmHg 85%
    Show more